Data supplied by UK-AIR on 2/10/2009
All Data GMT hour ending 
Status: R =Ratified P=Provisional,P*=As supplied
,,Inverness,,,,,,,,,,,,,,,,,,,,,,,
Date,time,"Nitric oxide",status,unit,"Nitrogen dioxide",status,unit,"Nitrogen oxides as nitrogen dioxide",status,unit,"Daily measured PM10 (uncorrected)",status,unit,"Daily measured PM2.5 (uncorrected)",status,unit
 
01-01-2008,01:00,5,R,ugm-3,31,R,ugm-3,38,R,ugm-3,,,,,,
01-01-2008,02:00,14,R,ugm-3,42,R,ugm-3,63,R,ugm-3,,,,,,
01-01-2008,03:00,5,R,ugm-3,31,R,ugm-3,38,R,ugm-3,,,,,,
01-01-2008,04:00,4,R,ugm-3,17,R,ugm-3,23,R,ugm-3,,,,,,
01-01-2008,05:00,4,R,ugm-3,17,R,ugm-3,23,R,ugm-3,,,,,,
01-01-2008,06:00,8,R,ugm-3,23,R,ugm-3,34,R,ugm-3,,,,,,
01-01-2008,07:00,3,R,ugm-3,13,R,ugm-3,17,R,ugm-3,,,,,,
01-01-2008,08:00,11,R,ugm-3,36,R,ugm-3,53,R,ugm-3,,,,,,
01-01-2008,09:00,8,R,ugm-3,29,R,ugm-3,40,R,ugm-3,,,,,,
01-01-2008,10:00,8,R,ugm-3,27,R,ugm-3,38,R,ugm-3,,,,,,
01-01-2008,11:00,13,R,ugm-3,27,R,ugm-3,46,R,ugm-3,,,,,,
01-01-2008,12:00,18,R,ugm-3,27,R,ugm-3,53,R,ugm-3,,,,,,
01-01-2008,13:00,29,R,ugm-3,34,R,ugm-3,78,R,ugm-3,,,,,,
01-01-2008,14:00,20,R,ugm-3,27,R,ugm-3,57,R,ugm-3,,,,,,
01-01-2008,15:00,49,R,ugm-3,46,R,ugm-3,120,R,ugm-3,,,,,,
01-01-2008,16:00,26,R,ugm-3,40,R,ugm-3,80,R,ugm-3,,,,,,
01-01-2008,17:00,8,R,ugm-3,27,R,ugm-3,38,R,ugm-3,,,,,,
01-01-2008,18:00,8,R,ugm-3,25,R,ugm-3,36,R,ugm-3,,,,,,
01-01-2008,19:00,3,R,ugm-3,17,R,ugm-3,21,R,ugm-3,,,,,,
01-01-2008,20:00,8,R,ugm-3,21,R,ugm-3,32,R,ugm-3,,,,,,
01-01-2008,21:00,3,R,ugm-3,13,R,ugm-3,17,R,ugm-3,,,,,,
01-01-2008,22:00,23,R,ugm-3,34,R,ugm-3,69,R,ugm-3,,,,,,
01-01-2008,23:00,9,R,ugm-3,21,R,ugm-3,34,R,ugm-3,,,,,,
01-01-2008,24:00,0,R,ugm-3,13,R,ugm-3,13,R,ugm-3,,,,,,
02-01-2008,01:00,6,R,ugm-3,13,R,ugm-3,23,R,ugm-3,,,,,,
02-01-2008,02:00,9,R,ugm-3,21,R,ugm-3,34,R,ugm-3,,,,,,
02-01-2008,03:00,16,R,ugm-3,25,R,ugm-3,50,R,ugm-3,,,,,,
02-01-2008,04:00,14,R,ugm-3,25,R,ugm-3,46,R,ugm-3,,,,,,
02-01-2008,05:00,15,R,ugm-3,25,R,ugm-3,48,R,ugm-3,,,,,,
02-01-2008,06:00,10,R,ugm-3,25,R,ugm-3,40,R,ugm-3,,,,,,
02-01-2008,07:00,34,R,ugm-3,31,R,ugm-3,82,R,ugm-3,,,,,,
02-01-2008,08:00,38,R,ugm-3,36,R,ugm-3,94,R,ugm-3,,,,,,
02-01-2008,09:00,20,R,ugm-3,42,R,ugm-3,73,R,ugm-3,,,,,,
02-01-2008,10:00,10,R,ugm-3,34,R,ugm-3,50,R,ugm-3,,,,,,
02-01-2008,11:00,10,R,ugm-3,42,R,ugm-3,57,R,ugm-3,,,,,,
02-01-2008,12:00,13,R,ugm-3,42,R,ugm-3,61,R,ugm-3,,,,,,
02-01-2008,13:00,31,R,ugm-3,48,R,ugm-3,96,R,ugm-3,,,,,,
02-01-2008,14:00,35,R,ugm-3,44,R,ugm-3,97,R,ugm-3,,,,,,
02-01-2008,15:00,41,R,ugm-3,52,R,ugm-3,115,R,ugm-3,,,,,,
02-01-2008,16:00,25,R,ugm-3,50,R,ugm-3,88,R,ugm-3,,,,,,
02-01-2008,17:00,41,R,ugm-3,61,R,ugm-3,124,R,ugm-3,,,,,,
02-01-2008,18:00,36,R,ugm-3,53,R,ugm-3,109,R,ugm-3,,,,,,
02-01-2008,19:00,19,R,ugm-3,46,R,ugm-3,74,R,ugm-3,,,,,,
02-01-2008,20:00,4,R,ugm-3,34,R,ugm-3,40,R,ugm-3,,,,,,
02-01-2008,21:00,10,R,ugm-3,48,R,ugm-3,63,R,ugm-3,,,,,,
02-01-2008,22:00,13,R,ugm-3,48,R,ugm-3,67,R,ugm-3,,,,,,
02-01-2008,23:00,1,R,ugm-3,13,R,ugm-3,15,R,ugm-3,,,,,,
02-01-2008,24:00,1,R,ugm-3,10,R,ugm-3,11,R,ugm-3,,,,,,
03-01-2008,01:00,0,R,ugm-3,6,R,ugm-3,6,R,ugm-3,,,,,,
03-01-2008,02:00,0,R,ugm-3,10,R,ugm-3,10,R,ugm-3,,,,,,
03-01-2008,03:00,0,R,ugm-3,8,R,ugm-3,8,R,ugm-3,,,,,,
03-01-2008,04:00,0,R,ugm-3,4,R,ugm-3,4,R,ugm-3,,,,,,
03-01-2008,05:00,0,R,ugm-3,8,R,ugm-3,8,R,ugm-3,,,,,,
03-01-2008,06:00,0,R,ugm-3,10,R,ugm-3,10,R,ugm-3,,,,,,
03-01-2008,07:00,5,R,ugm-3,23,R,ugm-3,31,R,ugm-3,,,,,,
03-01-2008,08:00,6,R,ugm-3,32,R,ugm-3,42,R,ugm-3,,,,,,
03-01-2008,09:00,13,R,ugm-3,36,R,ugm-3,55,R,ugm-3,,,,,,
03-01-2008,10:00,6,R,ugm-3,29,R,ugm-3,38,R,ugm-3,,,,,,
03-01-2008,11:00,8,R,ugm-3,29,R,ugm-3,40,R,ugm-3,,,,,,
03-01-2008,12:00,4,R,ugm-3,17,R,ugm-3,23,R,ugm-3,,,,,,
03-01-2008,13:00,5,R,ugm-3,19,R,ugm-3,27,R,ugm-3,,,,,,
03-01-2008,14:00,4,R,ugm-3,19,R,ugm-3,25,R,ugm-3,,,,,,
03-01-2008,15:00,5,R,ugm-3,23,R,ugm-3,31,R,ugm-3,,,,,,
03-01-2008,16:00,3,R,ugm-3,21,R,ugm-3,25,R,ugm-3,,,,,,
03-01-2008,17:00,4,R,ugm-3,19,R,ugm-3,25,R,ugm-3,,,,,,
03-01-2008,18:00,3,R,ugm-3,23,R,ugm-3,27,R,ugm-3,,,,,,
03-01-2008,19:00,8,R,ugm-3,36,R,ugm-3,48,R,ugm-3,,,,,,
03-01-2008,20:00,3,R,ugm-3,27,R,ugm-3,31,R,ugm-3,,,,,,
03-01-2008,21:00,3,R,ugm-3,19,R,ugm-3,23,R,ugm-3,,,,,,
03-01-2008,22:00,3,R,ugm-3,19,R,ugm-3,23,R,ugm-3,,,,,,
03-01-2008,23:00,6,R,ugm-3,36,R,ugm-3,46,R,ugm-3,,,,,,
03-01-2008,24:00,8,R,ugm-3,31,R,ugm-3,42,R,ugm-3,,,,,,
04-01-2008,01:00,0,R,ugm-3,11,R,ugm-3,11,R,ugm-3,,,,,,
04-01-2008,02:00,0,R,ugm-3,6,R,ugm-3,6,R,ugm-3,,,,,,
04-01-2008,03:00,0,R,ugm-3,6,R,ugm-3,6,R,ugm-3,,,,,,
04-01-2008,04:00,0,R,ugm-3,6,R,ugm-3,6,R,ugm-3,,,,,,
04-01-2008,05:00,0,R,ugm-3,10,R,ugm-3,10,R,ugm-3,,,,,,
04-01-2008,06:00,0,R,ugm-3,10,R,ugm-3,10,R,ugm-3,,,,,,
04-01-2008,07:00,1,R,ugm-3,11,R,ugm-3,13,R,ugm-3,,,,,,
04-01-2008,08:00,3,R,ugm-3,17,R,ugm-3,21,R,ugm-3,,,,,,
04-01-2008,09:00,4,R,ugm-3,21,R,ugm-3,27,R,ugm-3,,,,,,
04-01-2008,10:00,9,R,ugm-3,32,R,ugm-3,46,R,ugm-3,,,,,,
04-01-2008,11:00,51,R,ugm-3,44,R,ugm-3,122,R,ugm-3,,,,,,
04-01-2008,12:00,61,R,ugm-3,46,R,ugm-3,139,R,ugm-3,,,,,,
04-01-2008,13:00,55,R,ugm-3,52,R,ugm-3,136,R,ugm-3,,,,,,
04-01-2008,14:00,31,R,ugm-3,48,R,ugm-3,96,R,ugm-3,,,,,,
04-01-2008,15:00,29,R,ugm-3,40,R,ugm-3,84,R,ugm-3,,,,,,
04-01-2008,16:00,39,R,ugm-3,50,R,ugm-3,109,R,ugm-3,,,,,,
04-01-2008,17:00,21,R,ugm-3,36,R,ugm-3,69,R,ugm-3,,,,,,
04-01-2008,18:00,29,R,ugm-3,53,R,ugm-3,97,R,ugm-3,,,,,,
04-01-2008,19:00,25,R,ugm-3,44,R,ugm-3,82,R,ugm-3,,,,,,
04-01-2008,20:00,9,R,ugm-3,36,R,ugm-3,50,R,ugm-3,,,,,,
04-01-2008,21:00,10,R,ugm-3,34,R,ugm-3,50,R,ugm-3,,,,,,
04-01-2008,22:00,6,R,ugm-3,32,R,ugm-3,42,R,ugm-3,,,,,,
04-01-2008,23:00,5,R,ugm-3,29,R,ugm-3,36,R,ugm-3,,,,,,
04-01-2008,24:00,5,R,ugm-3,27,R,ugm-3,34,R,ugm-3,,,,,,
05-01-2008,01:00,5,R,ugm-3,23,R,ugm-3,31,R,ugm-3,,,,,,
05-01-2008,02:00,4,R,ugm-3,23,R,ugm-3,29,R,ugm-3,,,,,,
05-01-2008,03:00,3,R,ugm-3,23,R,ugm-3,27,R,ugm-3,,,,,,
05-01-2008,04:00,4,R,ugm-3,29,R,ugm-3,34,R,ugm-3,,,,,,
05-01-2008,05:00,1,R,ugm-3,21,R,ugm-3,23,R,ugm-3,,,,,,
05-01-2008,06:00,1,R,ugm-3,13,R,ugm-3,15,R,ugm-3,,,,,,
05-01-2008,07:00,6,R,ugm-3,17,R,ugm-3,27,R,ugm-3,,,,,,
05-01-2008,08:00,6,R,ugm-3,13,R,ugm-3,23,R,ugm-3,,,,,,
05-01-2008,09:00,9,R,ugm-3,15,R,ugm-3,29,R,ugm-3,,,,,,
05-01-2008,10:00,10,R,ugm-3,23,R,ugm-3,38,R,ugm-3,,,,,,
05-01-2008,11:00,60,R,ugm-3,73,R,ugm-3,164,R,ugm-3,,,,,,
05-01-2008,12:00,41,R,ugm-3,57,R,ugm-3,120,R,ugm-3,,,,,,
05-01-2008,13:00,16,R,ugm-3,27,R,ugm-3,52,R,ugm-3,,,,,,
05-01-2008,14:00,14,R,ugm-3,21,R,ugm-3,42,R,ugm-3,,,,,,
05-01-2008,15:00,20,R,ugm-3,29,R,ugm-3,59,R,ugm-3,,,,,,
05-01-2008,16:00,19,R,ugm-3,29,R,ugm-3,57,R,ugm-3,,,,,,
05-01-2008,17:00,18,R,ugm-3,25,R,ugm-3,52,R,ugm-3,,,,,,
05-01-2008,18:00,16,R,ugm-3,23,R,ugm-3,48,R,ugm-3,,,,,,
05-01-2008,19:00,11,R,ugm-3,17,R,ugm-3,34,R,ugm-3,,,,,,
05-01-2008,20:00,10,R,ugm-3,19,R,ugm-3,34,R,ugm-3,,,,,,
05-01-2008,21:00,9,R,ugm-3,17,R,ugm-3,31,R,ugm-3,,,,,,
05-01-2008,22:00,5,R,ugm-3,11,R,ugm-3,19,R,ugm-3,,,,,,
05-01-2008,23:00,3,R,ugm-3,6,R,ugm-3,10,R,ugm-3,,,,,,
05-01-2008,24:00,3,R,ugm-3,8,R,ugm-3,11,R,ugm-3,,,,,,
06-01-2008,01:00,0,R,ugm-3,6,R,ugm-3,6,R,ugm-3,,,,,,
06-01-2008,02:00,1,R,ugm-3,4,R,ugm-3,6,R,ugm-3,,,,,,
06-01-2008,03:00,1,R,ugm-3,4,R,ugm-3,6,R,ugm-3,,,,,,
06-01-2008,04:00,1,R,ugm-3,4,R,ugm-3,6,R,ugm-3,,,,,,
06-01-2008,05:00,0,R,ugm-3,2,R,ugm-3,2,R,ugm-3,,,,,,
06-01-2008,06:00,1,R,ugm-3,6,R,ugm-3,8,R,ugm-3,,,,,,
06-01-2008,07:00,1,R,ugm-3,6,R,ugm-3,8,R,ugm-3,,,,,,
06-01-2008,08:00,3,R,ugm-3,10,R,ugm-3,13,R,ugm-3,,,,,,
06-01-2008,09:00,3,R,ugm-3,6,R,ugm-3,10,R,ugm-3,,,,,,
06-01-2008,10:00,5,R,ugm-3,8,R,ugm-3,15,R,ugm-3,,,,,,
06-01-2008,11:00,6,R,ugm-3,13,R,ugm-3,23,R,ugm-3,,,,,,
06-01-2008,12:00,11,R,ugm-3,17,R,ugm-3,34,R,ugm-3,,,,,,
06-01-2008,13:00,13,R,ugm-3,21,R,ugm-3,40,R,ugm-3,,,,,,
06-01-2008,14:00,16,R,ugm-3,23,R,ugm-3,48,R,ugm-3,,,,,,
06-01-2008,15:00,24,R,ugm-3,29,R,ugm-3,65,R,ugm-3,,,,,,
06-01-2008,16:00,23,R,ugm-3,31,R,ugm-3,65,R,ugm-3,,,,,,
06-01-2008,17:00,33,R,ugm-3,52,R,ugm-3,101,R,ugm-3,,,,,,
06-01-2008,18:00,25,R,ugm-3,52,R,ugm-3,90,R,ugm-3,,,,,,
06-01-2008,19:00,21,R,ugm-3,40,R,ugm-3,73,R,ugm-3,,,,,,
06-01-2008,20:00,14,R,ugm-3,40,R,ugm-3,61,R,ugm-3,,,,,,
06-01-2008,21:00,21,R,ugm-3,50,R,ugm-3,82,R,ugm-3,,,,,,
06-01-2008,22:00,13,R,ugm-3,36,R,ugm-3,55,R,ugm-3,,,,,,
06-01-2008,23:00,18,R,ugm-3,52,R,ugm-3,78,R,ugm-3,,,,,,
06-01-2008,24:00,6,R,ugm-3,36,R,ugm-3,46,R,ugm-3,,,,,,
07-01-2008,01:00,0,R,ugm-3,13,R,ugm-3,13,R,ugm-3,,,,,,
07-01-2008,02:00,6,R,ugm-3,31,R,ugm-3,40,R,ugm-3,,,,,,
07-01-2008,03:00,8,R,ugm-3,27,R,ugm-3,38,R,ugm-3,,,,,,
07-01-2008,04:00,1,R,ugm-3,11,R,ugm-3,13,R,ugm-3,,,,,,
07-01-2008,05:00,8,R,ugm-3,31,R,ugm-3,42,R,ugm-3,,,,,,
07-01-2008,06:00,10,R,ugm-3,27,R,ugm-3,42,R,ugm-3,,,,,,
07-01-2008,07:00,36,R,ugm-3,44,R,ugm-3,99,R,ugm-3,,,,,,
07-01-2008,08:00,51,R,ugm-3,52,R,ugm-3,130,R,ugm-3,,,,,,
07-01-2008,09:00,70,R,ugm-3,74,R,ugm-3,181,R,ugm-3,,,,,,
07-01-2008,10:00,56,R,ugm-3,55,R,ugm-3,141,R,ugm-3,,,,,,
07-01-2008,11:00,45,R,ugm-3,48,R,ugm-3,117,R,ugm-3,,,,,,
07-01-2008,12:00,,,,,,,,,,,,,,,
07-01-2008,13:00,41,R,ugm-3,38,R,ugm-3,101,R,ugm-3,,,,,,
07-01-2008,14:00,44,R,ugm-3,50,R,ugm-3,117,R,ugm-3,,,,,,
07-01-2008,15:00,93,R,ugm-3,76,R,ugm-3,218,R,ugm-3,,,,,,
07-01-2008,16:00,114,R,ugm-3,107,R,ugm-3,281,R,ugm-3,,,,,,
07-01-2008,17:00,60,R,ugm-3,61,R,ugm-3,153,R,ugm-3,,,,,,
07-01-2008,18:00,51,R,ugm-3,61,R,ugm-3,139,R,ugm-3,,,,,,
07-01-2008,19:00,25,R,ugm-3,36,R,ugm-3,74,R,ugm-3,,,,,,
07-01-2008,20:00,20,R,ugm-3,31,R,ugm-3,61,R,ugm-3,,,,,,
07-01-2008,21:00,9,R,ugm-3,17,R,ugm-3,31,R,ugm-3,,,,,,
07-01-2008,22:00,11,R,ugm-3,21,R,ugm-3,38,R,ugm-3,,,,,,
07-01-2008,23:00,3,R,ugm-3,8,R,ugm-3,11,R,ugm-3,,,,,,
07-01-2008,24:00,1,R,ugm-3,4,R,ugm-3,6,R,ugm-3,,,,,,
08-01-2008,01:00,0,R,ugm-3,4,R,ugm-3,4,R,ugm-3,,,,,,
08-01-2008,02:00,0,R,ugm-3,4,R,ugm-3,4,R,ugm-3,,,,,,
08-01-2008,03:00,0,R,ugm-3,2,R,ugm-3,2,R,ugm-3,,,,,,
08-01-2008,04:00,0,R,ugm-3,4,R,ugm-3,4,R,ugm-3,,,,,,
08-01-2008,05:00,1,R,ugm-3,4,R,ugm-3,6,R,ugm-3,,,,,,
08-01-2008,06:00,1,R,ugm-3,8,R,ugm-3,10,R,ugm-3,,,,,,
08-01-2008,07:00,10,R,ugm-3,21,R,ugm-3,36,R,ugm-3,,,,,,
08-01-2008,08:00,20,R,ugm-3,32,R,ugm-3,63,R,ugm-3,,,,,,
08-01-2008,09:00,53,R,ugm-3,71,R,ugm-3,151,R,ugm-3,,,,,,
08-01-2008,10:00,54,R,ugm-3,65,R,ugm-3,147,R,ugm-3,,,,,,
08-01-2008,11:00,110,R,ugm-3,94,R,ugm-3,262,R,ugm-3,,,,,,
08-01-2008,12:00,140,R,ugm-3,118,R,ugm-3,332,R,ugm-3,,,,,,
08-01-2008,13:00,93,R,ugm-3,94,R,ugm-3,235,R,ugm-3,,,,,,
08-01-2008,14:00,96,R,ugm-3,99,R,ugm-3,246,R,ugm-3,,,,,,
08-01-2008,15:00,36,R,ugm-3,67,R,ugm-3,122,R,ugm-3,,,,,,
08-01-2008,16:00,34,R,ugm-3,61,R,ugm-3,113,R,ugm-3,,,,,,
08-01-2008,17:00,18,R,ugm-3,50,R,ugm-3,76,R,ugm-3,,,,,,
08-01-2008,18:00,4,R,ugm-3,27,R,ugm-3,32,R,ugm-3,,,,,,
08-01-2008,19:00,4,R,ugm-3,29,R,ugm-3,34,R,ugm-3,,,,,,
08-01-2008,20:00,1,R,ugm-3,17,R,ugm-3,19,R,ugm-3,,,,,,
08-01-2008,21:00,3,R,ugm-3,21,R,ugm-3,25,R,ugm-3,,,,,,
08-01-2008,22:00,5,R,ugm-3,23,R,ugm-3,31,R,ugm-3,,,,,,
08-01-2008,23:00,1,R,ugm-3,8,R,ugm-3,10,R,ugm-3,,,,,,
08-01-2008,24:00,1,R,ugm-3,15,R,ugm-3,17,R,ugm-3,,,,,,
09-01-2008,01:00,1,R,ugm-3,6,R,ugm-3,8,R,ugm-3,,,,,,
09-01-2008,02:00,1,R,ugm-3,8,R,ugm-3,10,R,ugm-3,,,,,,
09-01-2008,03:00,0,R,ugm-3,4,R,ugm-3,4,R,ugm-3,,,,,,
09-01-2008,04:00,1,R,ugm-3,2,R,ugm-3,4,R,ugm-3,,,,,,
09-01-2008,05:00,0,R,ugm-3,2,R,ugm-3,2,R,ugm-3,,,,,,
09-01-2008,06:00,1,R,ugm-3,4,R,ugm-3,6,R,ugm-3,,,,,,
09-01-2008,07:00,4,R,ugm-3,8,R,ugm-3,13,R,ugm-3,,,,,,
09-01-2008,08:00,9,R,ugm-3,15,R,ugm-3,29,R,ugm-3,,,,,,
09-01-2008,09:00,14,R,ugm-3,27,R,ugm-3,48,R,ugm-3,,,,,,
09-01-2008,10:00,10,R,ugm-3,19,R,ugm-3,34,R,ugm-3,,,,,,
09-01-2008,11:00,10,R,ugm-3,15,R,ugm-3,31,R,ugm-3,,,,,,
09-01-2008,12:00,11,R,ugm-3,17,R,ugm-3,34,R,ugm-3,,,,,,
09-01-2008,13:00,9,R,ugm-3,17,R,ugm-3,31,R,ugm-3,,,,,,
09-01-2008,14:00,13,R,ugm-3,19,R,ugm-3,38,R,ugm-3,,,,,,
09-01-2008,15:00,16,R,ugm-3,17,R,ugm-3,42,R,ugm-3,,,,,,
09-01-2008,16:00,14,R,ugm-3,17,R,ugm-3,38,R,ugm-3,,,,,,
09-01-2008,17:00,18,R,ugm-3,29,R,ugm-3,55,R,ugm-3,,,,,,
09-01-2008,18:00,14,R,ugm-3,23,R,ugm-3,44,R,ugm-3,,,,,,
09-01-2008,19:00,11,R,ugm-3,21,R,ugm-3,38,R,ugm-3,,,,,,
09-01-2008,20:00,10,R,ugm-3,15,R,ugm-3,31,R,ugm-3,,,,,,
09-01-2008,21:00,6,R,ugm-3,13,R,ugm-3,23,R,ugm-3,,,,,,
09-01-2008,22:00,4,R,ugm-3,8,R,ugm-3,13,R,ugm-3,,,,,,
09-01-2008,23:00,4,R,ugm-3,10,R,ugm-3,15,R,ugm-3,,,,,,
09-01-2008,24:00,3,R,ugm-3,4,R,ugm-3,8,R,ugm-3,,,,,,
10-01-2008,01:00,0,R,ugm-3,4,R,ugm-3,4,R,ugm-3,,,,,,
10-01-2008,02:00,0,R,ugm-3,4,R,ugm-3,4,R,ugm-3,,,,,,
10-01-2008,03:00,1,R,ugm-3,4,R,ugm-3,6,R,ugm-3,,,,,,
10-01-2008,04:00,4,R,ugm-3,11,R,ugm-3,17,R,ugm-3,,,,,,
10-01-2008,05:00,3,R,ugm-3,11,R,ugm-3,15,R,ugm-3,,,,,,
10-01-2008,06:00,8,R,ugm-3,27,R,ugm-3,38,R,ugm-3,,,,,,
10-01-2008,07:00,58,R,ugm-3,63,R,ugm-3,151,R,ugm-3,,,,,,
10-01-2008,08:00,146,R,ugm-3,99,R,ugm-3,323,R,ugm-3,,,,,,
10-01-2008,09:00,131,R,ugm-3,86,R,ugm-3,287,R,ugm-3,,,,,,
10-01-2008,10:00,201,R,ugm-3,101,R,ugm-3,409,R,ugm-3,,,,,,
10-01-2008,11:00,31,R,ugm-3,42,R,ugm-3,90,R,ugm-3,,,,,,
10-01-2008,12:00,31,R,ugm-3,42,R,ugm-3,90,R,ugm-3,,,,,,
10-01-2008,13:00,133,R,ugm-3,92,R,ugm-3,294,R,ugm-3,,,,,,
10-01-2008,14:00,124,R,ugm-3,101,R,ugm-3,290,R,ugm-3,,,,,,
10-01-2008,15:00,135,R,ugm-3,94,R,ugm-3,300,R,ugm-3,,,,,,
10-01-2008,16:00,93,R,ugm-3,74,R,ugm-3,216,R,ugm-3,,,,,,
10-01-2008,17:00,114,R,ugm-3,96,R,ugm-3,269,R,ugm-3,,,,,,
10-01-2008,18:00,106,R,ugm-3,76,R,ugm-3,239,R,ugm-3,,,,,,
10-01-2008,19:00,38,R,ugm-3,55,R,ugm-3,113,R,ugm-3,,,,,,
10-01-2008,20:00,14,R,ugm-3,23,R,ugm-3,44,R,ugm-3,,,,,,
10-01-2008,21:00,9,R,ugm-3,15,R,ugm-3,29,R,ugm-3,,,,,,
10-01-2008,22:00,15,R,ugm-3,38,R,ugm-3,61,R,ugm-3,,,,,,
10-01-2008,23:00,6,R,ugm-3,19,R,ugm-3,29,R,ugm-3,,,,,,
10-01-2008,24:00,3,R,ugm-3,8,R,ugm-3,11,R,ugm-3,,,,,,
11-01-2008,01:00,5,R,ugm-3,19,R,ugm-3,27,R,ugm-3,,,,,,
11-01-2008,02:00,1,R,ugm-3,6,R,ugm-3,8,R,ugm-3,,,,,,
11-01-2008,03:00,0,R,ugm-3,4,R,ugm-3,4,R,ugm-3,,,,,,
11-01-2008,04:00,1,R,ugm-3,4,R,ugm-3,6,R,ugm-3,,,,,,
11-01-2008,05:00,1,R,ugm-3,8,R,ugm-3,10,R,ugm-3,,,,,,
11-01-2008,06:00,3,R,ugm-3,8,R,ugm-3,11,R,ugm-3,,,,,,
11-01-2008,07:00,9,R,ugm-3,19,R,ugm-3,32,R,ugm-3,,,,,,
11-01-2008,08:00,71,R,ugm-3,82,R,ugm-3,191,R,ugm-3,,,,,,
11-01-2008,09:00,103,R,ugm-3,103,R,ugm-3,260,R,ugm-3,,,,,,
11-01-2008,10:00,54,R,ugm-3,73,R,ugm-3,155,R,ugm-3,,,,,,
11-01-2008,11:00,68,R,ugm-3,69,R,ugm-3,172,R,ugm-3,,,,,,
11-01-2008,12:00,55,R,ugm-3,53,R,ugm-3,138,R,ugm-3,,,,,,
11-01-2008,13:00,25,R,ugm-3,32,R,ugm-3,71,R,ugm-3,,,,,,
11-01-2008,14:00,46,R,ugm-3,65,R,ugm-3,136,R,ugm-3,,,,,,
11-01-2008,15:00,46,R,ugm-3,57,R,ugm-3,128,R,ugm-3,,,,,,
11-01-2008,16:00,91,R,ugm-3,88,R,ugm-3,227,R,ugm-3,,,,,,
11-01-2008,17:00,81,R,ugm-3,94,R,ugm-3,218,R,ugm-3,,,,,,
11-01-2008,18:00,86,R,ugm-3,97,R,ugm-3,229,R,ugm-3,,,,,,
11-01-2008,19:00,124,R,ugm-3,103,R,ugm-3,292,R,ugm-3,,,,,,
11-01-2008,20:00,66,R,ugm-3,74,R,ugm-3,176,R,ugm-3,,,,,,
11-01-2008,21:00,43,R,ugm-3,53,R,ugm-3,118,R,ugm-3,,,,,,
11-01-2008,22:00,34,R,ugm-3,50,R,ugm-3,101,R,ugm-3,,,,,,
11-01-2008,23:00,26,R,ugm-3,48,R,ugm-3,88,R,ugm-3,,,,,,
11-01-2008,24:00,50,R,ugm-3,53,R,ugm-3,130,R,ugm-3,,,,,,
12-01-2008,01:00,15,R,ugm-3,32,R,ugm-3,55,R,ugm-3,,,,,,
12-01-2008,02:00,10,R,ugm-3,19,R,ugm-3,34,R,ugm-3,,,,,,
12-01-2008,03:00,13,R,ugm-3,31,R,ugm-3,50,R,ugm-3,,,,,,
12-01-2008,04:00,8,R,ugm-3,23,R,ugm-3,34,R,ugm-3,,,,,,
12-01-2008,05:00,4,R,ugm-3,15,R,ugm-3,21,R,ugm-3,,,,,,
12-01-2008,06:00,8,R,ugm-3,13,R,ugm-3,25,R,ugm-3,,,,,,
12-01-2008,07:00,21,R,ugm-3,31,R,ugm-3,63,R,ugm-3,,,,,,
12-01-2008,08:00,19,R,ugm-3,27,R,ugm-3,55,R,ugm-3,,,,,,
12-01-2008,09:00,24,R,ugm-3,38,R,ugm-3,74,R,ugm-3,,,,,,
12-01-2008,10:00,83,R,ugm-3,67,R,ugm-3,193,R,ugm-3,,,,,,
12-01-2008,11:00,101,R,ugm-3,76,R,ugm-3,231,R,ugm-3,,,,,,
12-01-2008,12:00,39,R,ugm-3,55,R,ugm-3,115,R,ugm-3,,,,,,
12-01-2008,13:00,45,R,ugm-3,50,R,ugm-3,118,R,ugm-3,,,,,,
12-01-2008,14:00,60,R,ugm-3,63,R,ugm-3,155,R,ugm-3,,,,,,
12-01-2008,15:00,85,R,ugm-3,71,R,ugm-3,201,R,ugm-3,,,,,,
12-01-2008,16:00,80,R,ugm-3,84,R,ugm-3,206,R,ugm-3,,,,,,
12-01-2008,17:00,126,R,ugm-3,88,R,ugm-3,281,R,ugm-3,,,,,,
12-01-2008,18:00,95,R,ugm-3,74,R,ugm-3,220,R,ugm-3,,,,,,
12-01-2008,19:00,123,R,ugm-3,78,R,ugm-3,265,R,ugm-3,,,,,,
12-01-2008,20:00,118,R,ugm-3,76,R,ugm-3,256,R,ugm-3,,,,,,
12-01-2008,21:00,105,R,ugm-3,71,R,ugm-3,231,R,ugm-3,,,,,,
12-01-2008,22:00,124,R,ugm-3,82,R,ugm-3,271,R,ugm-3,,,,,,
12-01-2008,23:00,25,R,ugm-3,38,R,ugm-3,76,R,ugm-3,,,,,,
12-01-2008,24:00,18,R,ugm-3,38,R,ugm-3,65,R,ugm-3,,,,,,
13-01-2008,01:00,3,R,ugm-3,31,R,ugm-3,34,R,ugm-3,,,,,,
13-01-2008,02:00,0,R,ugm-3,11,R,ugm-3,11,R,ugm-3,,,,,,
13-01-2008,03:00,0,R,ugm-3,6,R,ugm-3,6,R,ugm-3,,,,,,
13-01-2008,04:00,0,R,ugm-3,6,R,ugm-3,6,R,ugm-3,,,,,,
13-01-2008,05:00,0,R,ugm-3,6,R,ugm-3,6,R,ugm-3,,,,,,
13-01-2008,06:00,0,R,ugm-3,8,R,ugm-3,8,R,ugm-3,,,,,,
13-01-2008,07:00,1,R,ugm-3,15,R,ugm-3,17,R,ugm-3,,,,,,
13-01-2008,08:00,3,R,ugm-3,19,R,ugm-3,23,R,ugm-3,,,,,,
13-01-2008,09:00,16,R,ugm-3,42,R,ugm-3,67,R,ugm-3,,,,,,
13-01-2008,10:00,34,R,ugm-3,42,R,ugm-3,94,R,ugm-3,,,,,,
13-01-2008,11:00,29,R,ugm-3,31,R,ugm-3,74,R,ugm-3,,,,,,
13-01-2008,12:00,20,R,ugm-3,34,R,ugm-3,65,R,ugm-3,,,,,,
13-01-2008,13:00,33,R,ugm-3,38,R,ugm-3,88,R,ugm-3,,,,,,
13-01-2008,14:00,36,R,ugm-3,44,R,ugm-3,99,R,ugm-3,,,,,,
13-01-2008,15:00,16,R,ugm-3,31,R,ugm-3,55,R,ugm-3,,,,,,
13-01-2008,16:00,29,R,ugm-3,38,R,ugm-3,82,R,ugm-3,,,,,,
13-01-2008,17:00,48,R,ugm-3,44,R,ugm-3,117,R,ugm-3,,,,,,
13-01-2008,18:00,84,R,ugm-3,63,R,ugm-3,191,R,ugm-3,,,,,,
13-01-2008,19:00,79,R,ugm-3,61,R,ugm-3,181,R,ugm-3,,,,,,
13-01-2008,20:00,24,R,ugm-3,34,R,ugm-3,71,R,ugm-3,,,,,,
13-01-2008,21:00,30,R,ugm-3,36,R,ugm-3,82,R,ugm-3,,,,,,
13-01-2008,22:00,15,R,ugm-3,29,R,ugm-3,52,R,ugm-3,,,,,,
13-01-2008,23:00,6,R,ugm-3,19,R,ugm-3,29,R,ugm-3,,,,,,
13-01-2008,24:00,6,R,ugm-3,29,R,ugm-3,38,R,ugm-3,,,,,,
14-01-2008,01:00,8,R,ugm-3,34,R,ugm-3,46,R,ugm-3,,,,,,
14-01-2008,02:00,8,R,ugm-3,25,R,ugm-3,36,R,ugm-3,,,,,,
14-01-2008,03:00,4,R,ugm-3,11,R,ugm-3,17,R,ugm-3,,,,,,
14-01-2008,04:00,9,R,ugm-3,23,R,ugm-3,36,R,ugm-3,,,,,,
14-01-2008,05:00,9,R,ugm-3,31,R,ugm-3,44,R,ugm-3,,,,,,
14-01-2008,06:00,28,R,ugm-3,31,R,ugm-3,73,R,ugm-3,,,,,,
14-01-2008,07:00,54,R,ugm-3,42,R,ugm-3,124,R,ugm-3,,,,,,
14-01-2008,08:00,116,R,ugm-3,78,R,ugm-3,256,R,ugm-3,,,,,,
14-01-2008,09:00,41,R,ugm-3,53,R,ugm-3,117,R,ugm-3,,,,,,
14-01-2008,10:00,53,R,ugm-3,53,R,ugm-3,134,R,ugm-3,,,,,,
14-01-2008,11:00,43,R,ugm-3,48,R,ugm-3,113,R,ugm-3,,,,,,
14-01-2008,12:00,38,R,ugm-3,44,R,ugm-3,101,R,ugm-3,,,,,,
14-01-2008,13:00,70,R,ugm-3,67,R,ugm-3,174,R,ugm-3,,,,,,
14-01-2008,14:00,116,R,ugm-3,76,R,ugm-3,254,R,ugm-3,,,,,,
14-01-2008,15:00,63,R,ugm-3,57,R,ugm-3,153,R,ugm-3,,,,,,
14-01-2008,16:00,78,R,ugm-3,76,R,ugm-3,195,R,ugm-3,,,,,,
14-01-2008,17:00,75,R,ugm-3,65,R,ugm-3,180,R,ugm-3,,,,,,
14-01-2008,18:00,111,R,ugm-3,71,R,ugm-3,241,R,ugm-3,,,,,,
14-01-2008,19:00,79,R,ugm-3,59,R,ugm-3,180,R,ugm-3,,,,,,
14-01-2008,20:00,55,R,ugm-3,46,R,ugm-3,130,R,ugm-3,,,,,,
14-01-2008,21:00,36,R,ugm-3,38,R,ugm-3,94,R,ugm-3,,,,,,
14-01-2008,22:00,13,R,ugm-3,29,R,ugm-3,48,R,ugm-3,,,,,,
14-01-2008,23:00,21,R,ugm-3,34,R,ugm-3,67,R,ugm-3,,,,,,
14-01-2008,24:00,3,R,ugm-3,10,R,ugm-3,13,R,ugm-3,,,,,,
15-01-2008,01:00,3,R,ugm-3,8,R,ugm-3,11,R,ugm-3,,,,,,
15-01-2008,02:00,3,R,ugm-3,10,R,ugm-3,13,R,ugm-3,,,,,,
15-01-2008,03:00,3,R,ugm-3,10,R,ugm-3,13,R,ugm-3,,,,,,
15-01-2008,04:00,11,R,ugm-3,21,R,ugm-3,38,R,ugm-3,,,,,,
15-01-2008,05:00,23,R,ugm-3,27,R,ugm-3,61,R,ugm-3,,,,,,
15-01-2008,06:00,21,R,ugm-3,29,R,ugm-3,61,R,ugm-3,,,,,,
15-01-2008,07:00,61,R,ugm-3,42,R,ugm-3,136,R,ugm-3,,,,,,
15-01-2008,08:00,138,R,ugm-3,73,R,ugm-3,283,R,ugm-3,,,,,,
15-01-2008,09:00,141,R,ugm-3,82,R,ugm-3,298,R,ugm-3,,,,,,
15-01-2008,10:00,168,R,ugm-3,71,R,ugm-3,327,R,ugm-3,,,,,,
15-01-2008,11:00,53,R,ugm-3,46,R,ugm-3,126,R,ugm-3,,,,,,
15-01-2008,12:00,44,R,ugm-3,53,R,ugm-3,120,R,ugm-3,,,,,,
15-01-2008,13:00,6,R,ugm-3,38,R,ugm-3,48,R,ugm-3,,,,,,
15-01-2008,14:00,6,R,ugm-3,36,R,ugm-3,46,R,ugm-3,,,,,,
15-01-2008,15:00,16,R,ugm-3,48,R,ugm-3,73,R,ugm-3,,,,,,
15-01-2008,16:00,6,R,ugm-3,44,R,ugm-3,53,R,ugm-3,,,,,,
15-01-2008,17:00,6,R,ugm-3,36,R,ugm-3,46,R,ugm-3,,,,,,
15-01-2008,18:00,16,R,ugm-3,50,R,ugm-3,74,R,ugm-3,,,,,,
15-01-2008,19:00,5,R,ugm-3,40,R,ugm-3,48,R,ugm-3,,,,,,
15-01-2008,20:00,1,R,ugm-3,10,R,ugm-3,11,R,ugm-3,,,,,,
15-01-2008,21:00,0,R,ugm-3,6,R,ugm-3,6,R,ugm-3,,,,,,
15-01-2008,22:00,0,R,ugm-3,4,R,ugm-3,4,R,ugm-3,,,,,,
15-01-2008,23:00,0,R,ugm-3,4,R,ugm-3,4,R,ugm-3,,,,,,
15-01-2008,24:00,0,R,ugm-3,2,R,ugm-3,2,R,ugm-3,,,,,,
16-01-2008,01:00,0,R,ugm-3,2,R,ugm-3,2,R,ugm-3,,,,,,
16-01-2008,02:00,0,R,ugm-3,2,R,ugm-3,2,R,ugm-3,,,,,,
16-01-2008,03:00,0,R,ugm-3,2,R,ugm-3,2,R,ugm-3,,,,,,
16-01-2008,04:00,0,R,ugm-3,2,R,ugm-3,2,R,ugm-3,,,,,,
16-01-2008,05:00,0,R,ugm-3,2,R,ugm-3,2,R,ugm-3,,,,,,
16-01-2008,06:00,0,R,ugm-3,4,R,ugm-3,4,R,ugm-3,,,,,,
16-01-2008,07:00,16,R,ugm-3,32,R,ugm-3,57,R,ugm-3,,,,,,
16-01-2008,08:00,78,R,ugm-3,90,R,ugm-3,208,R,ugm-3,,,,,,
16-01-2008,09:00,119,R,ugm-3,118,R,ugm-3,300,R,ugm-3,,,,,,
16-01-2008,10:00,85,R,ugm-3,96,R,ugm-3,225,R,ugm-3,,,,,,
16-01-2008,11:00,63,R,ugm-3,78,R,ugm-3,174,R,ugm-3,,,,,,
16-01-2008,12:00,43,R,ugm-3,61,R,ugm-3,126,R,ugm-3,,,,,,
16-01-2008,13:00,63,R,ugm-3,74,R,ugm-3,170,R,ugm-3,,,,,,
16-01-2008,14:00,50,R,ugm-3,73,R,ugm-3,149,R,ugm-3,,,,,,
16-01-2008,15:00,48,R,ugm-3,55,R,ugm-3,128,R,ugm-3,,,,,,
16-01-2008,16:00,64,R,ugm-3,82,R,ugm-3,180,R,ugm-3,,,,,,
16-01-2008,17:00,60,R,ugm-3,82,R,ugm-3,174,R,ugm-3,,,,,,
16-01-2008,18:00,86,R,ugm-3,86,R,ugm-3,218,R,ugm-3,,,,,,
16-01-2008,19:00,60,R,ugm-3,78,R,ugm-3,170,R,ugm-3,,,,,,
16-01-2008,20:00,68,R,ugm-3,74,R,ugm-3,178,R,ugm-3,,,,,,
16-01-2008,21:00,50,R,ugm-3,63,R,ugm-3,139,R,ugm-3,,,,,,
16-01-2008,22:00,55,R,ugm-3,65,R,ugm-3,149,R,ugm-3,,,,,,
16-01-2008,23:00,31,R,ugm-3,59,R,ugm-3,107,R,ugm-3,,,,,,
16-01-2008,24:00,35,R,ugm-3,55,R,ugm-3,109,R,ugm-3,,,,,,
17-01-2008,01:00,25,R,ugm-3,48,R,ugm-3,86,R,ugm-3,,,,,,
17-01-2008,02:00,5,R,ugm-3,32,R,ugm-3,40,R,ugm-3,,,,,,
17-01-2008,03:00,1,R,ugm-3,17,R,ugm-3,19,R,ugm-3,,,,,,
17-01-2008,04:00,3,R,ugm-3,23,R,ugm-3,27,R,ugm-3,,,,,,
17-01-2008,05:00,9,R,ugm-3,25,R,ugm-3,38,R,ugm-3,,,,,,
17-01-2008,06:00,28,R,ugm-3,42,R,ugm-3,84,R,ugm-3,,,,,,
17-01-2008,07:00,40,R,ugm-3,53,R,ugm-3,115,R,ugm-3,,,,,,
17-01-2008,08:00,63,R,ugm-3,63,R,ugm-3,159,R,ugm-3,,,,,,
17-01-2008,09:00,33,R,ugm-3,52,R,ugm-3,101,R,ugm-3,,,,,,
17-01-2008,10:00,35,R,ugm-3,52,R,ugm-3,105,R,ugm-3,,,,,,
17-01-2008,11:00,69,R,ugm-3,61,R,ugm-3,166,R,ugm-3,,,,,,
17-01-2008,12:00,75,R,ugm-3,67,R,ugm-3,181,R,ugm-3,,,,,,
17-01-2008,13:00,110,R,ugm-3,71,R,ugm-3,239,R,ugm-3,,,,,,
17-01-2008,14:00,68,R,ugm-3,67,R,ugm-3,170,R,ugm-3,,,,,,
17-01-2008,15:00,26,R,ugm-3,44,R,ugm-3,84,R,ugm-3,,,,,,
17-01-2008,16:00,83,R,ugm-3,78,R,ugm-3,204,R,ugm-3,,,,,,
17-01-2008,17:00,118,R,ugm-3,88,R,ugm-3,267,R,ugm-3,,,,,,
17-01-2008,18:00,99,R,ugm-3,78,R,ugm-3,229,R,ugm-3,,,,,,
17-01-2008,19:00,148,R,ugm-3,80,R,ugm-3,306,R,ugm-3,,,,,,
17-01-2008,20:00,138,R,ugm-3,73,R,ugm-3,283,R,ugm-3,,,,,,
17-01-2008,21:00,34,R,ugm-3,38,R,ugm-3,90,R,ugm-3,,,,,,
17-01-2008,22:00,21,R,ugm-3,32,R,ugm-3,65,R,ugm-3,,,,,,
17-01-2008,23:00,6,R,ugm-3,21,R,ugm-3,31,R,ugm-3,,,,,,
17-01-2008,24:00,4,R,ugm-3,15,R,ugm-3,21,R,ugm-3,,,,,,
18-01-2008,01:00,1,R,ugm-3,11,R,ugm-3,13,R,ugm-3,,,,,,
18-01-2008,02:00,3,R,ugm-3,10,R,ugm-3,13,R,ugm-3,,,,,,
18-01-2008,03:00,5,R,ugm-3,23,R,ugm-3,31,R,ugm-3,,,,,,
18-01-2008,04:00,4,R,ugm-3,10,R,ugm-3,15,R,ugm-3,,,,,,
18-01-2008,05:00,3,R,ugm-3,19,R,ugm-3,23,R,ugm-3,,,,,,
18-01-2008,06:00,5,R,ugm-3,19,R,ugm-3,27,R,ugm-3,,,,,,
18-01-2008,07:00,18,R,ugm-3,31,R,ugm-3,57,R,ugm-3,,,,,,
18-01-2008,08:00,59,R,ugm-3,71,R,ugm-3,160,R,ugm-3,,,,,,
18-01-2008,09:00,89,R,ugm-3,96,R,ugm-3,231,R,ugm-3,,,,,,
18-01-2008,10:00,129,R,ugm-3,92,R,ugm-3,288,R,ugm-3,,,,,,
18-01-2008,11:00,123,R,ugm-3,97,R,ugm-3,285,R,ugm-3,,,,,,
18-01-2008,12:00,54,R,ugm-3,55,R,ugm-3,138,R,ugm-3,,,,,,
18-01-2008,13:00,20,R,ugm-3,34,R,ugm-3,65,R,ugm-3,,,,,,
18-01-2008,14:00,13,R,ugm-3,23,R,ugm-3,42,R,ugm-3,,,,,,
18-01-2008,15:00,13,R,ugm-3,21,R,ugm-3,40,R,ugm-3,,,,,,
18-01-2008,16:00,18,R,ugm-3,31,R,ugm-3,57,R,ugm-3,,,,,,